Hlavní strana
METAR-TAF:

METAR-TAF

Letiště :

Millington, Tennessee, Spojené státy americké

zeměpisná šířka: 35-21-24N, zeměpisná délka: 089-52-13W, výška: 98 m

Aktuální stav počasí

Zpráva byla vytvořena před 23 minutami, v 07:55 UTC
Severoseverovýchodní vítr 8 kt
Teplota -3°C
Vlhkost vzduchu 68%
Tlak 1036 hPa
Viditelnost: 16.1 km
Zataženo ve výšce 2400 ft

METAR: KNQA 210755Z AUTO 03008KT 10SM OVC024 M03/M08 A3060 RMK A01

Čas: 02:18 (08:18 UTC)


TAF: chybějící

Stav a předpovědi počasí z více než 4 000 letišť (zprávy METAR a TAF).

Červené a žluté tečky na mapě představují dostupné meteorologické stanice.

Když kurzor umístíte na tečku, zobrazí se název stanice.

Pak kliknutím zobrazíte stav a předpověď počasí.

Chcete-li změnit mapu, kliknutím na zelené tlačítko se znaménkem +mapu přiblížíte, kliknutím na zelené tlačítko se znaménkem – mapu oddálíte a kliknutím na zelené šipky přejdete na sousední mapy.


METAR-TAF: